Location: Arpaise
(41.0333°N, 14.7333°E)
Time: 07:21:18
(UTC+00:00)

Okean 3 Rocket - Pass Details

Date: 05 July 2020
Orbit: 614 x 645 km, 82.5° (Epoch: 05 August)

Event Time Altitude Azimuth Distance (km) Brightness Sun altitude
Exits shadow 22:47:02 49° 290° (WNW) 820 4.2 -26.2°
Drops below altitude 10° 22:51:10 10° 357° (N) 2,008 7.2 -26.2°
Sets 22:53:28 0° 3° (N) 2,915 8.3 -26.2°
